Showing default

SINOD-D 3, 40977

Orbit data source: Space-Track

SINOD-D 3, 40977 is a payload satellite owned by SRI (US) in LEO that was launched on Thu, 08 Oct 2015 UTC via an ATLAS V 401 launch vehicle from the Air Force Western Test Range (AFWTR). Payload-class satellites include a variety of spacecraft equipped with specific instruments for various scientific and technological missions. These include communications satellites like Starlink; space stations such as the ISS; scientific satellites like the Hubble; Earth observation satellites from companies like Planet Labs, Umbra, and HawkEye 360; GPS; miniature CubeSats for education and research; and military/defense satellites.

Loading next visibility...
Identifier
40977, 2015-058P
Orbit
LEO
Last TLE update
22 hours ago
Origin
Manufacturer
SRI
Mission
Operational Commercial Technology
Bus & Motor
CUBESAT 2U, Unknown motor
Mass
2 kg wet, 2 kg dry
Launch date (UTC)
2015-10-08 (10 years ago)
Launch vehicle
ATLAS V 401
Launch site
Air Force Western Test Range (AFWTR)
Object type
Payload
Rocket body
Debris
Shape & HBR
Box, 0.2 m
Radar Cross Section
0.040 m², Small (<0.1 m²)

Expand to show TLE details & history

TLE from 22 hours ago
0 SINOD-D 3
1 40977U 15058P   25128.32227649  .00003377  00000-0  29149-3 0  9997
2 40977  64.7717  96.1893 0157248 208.3012 150.9492 14.89963314 54355
Epoch: 2025-05-08T07:44Z
Definitive object data (Epoch: 2025-05-08T07:44:04.688Z)
Latitude
-0.0001°
Longitude
113.77528°
Altitude
696.362 km
Speed
7.457 km/s
True Right ascension
06h 24m 45s
True Declination
0° 00' 00"
Sunlit
Object was in daylight at TLE epoch
Visualization TLE readout
Latitude
48.79296°
Longitude
-101.35856°
Altitude
591.743 km
Speed
7.576 km/s
Apparent Right ascension
21h 03m 19s
Apparent Declination
19° 18' 31"
Sunlit
Object is in daylight
Visualization observer readout
Local Sidereal Time
13:23:08
Azimuth
59.188° ENE
Elevation
-5.407°
Doppler factor
1
Orbital elements
Apogee altitude
706.295 km
Perigee altitude
486.941 km
Semi-major axis
6,974.755 km
Eccentricity
0.0157248
Inclination
64.7717°
RAAN
96.1893°
Arg. of periapsis
208.3012°
True anomaly
151.80937°
Mean anomaly
150.9492°
Eccentric anomaly
151.38075°
Mean motion
3.72606 °/min
BSTAR
0.00029149
Orbital period
96.62 mins
Loading maneuver chart data...
Loading SW <> Apogee altitude chart data...
Loading historical data...
Loading historical data...
Loading historical data...
Loading historical data...
Loading historical data...
Loading historical data...
Loading historical data...

SINOD-D 3 Visibility forecast

Observer location: undefined°, undefined°

Span
Click to sort rows by Start time (UTC) header in descending order
Start Az.
Max El. time (UTC)
Max El. Az.
Max El.
End time (UTC)
End Az.
7 mins2025-05-09 08:27:30.364Z327.877° NNW2025-05-09 08:30:30.364Z322.649° NNW44.488°2025-05-09 08:34:30.364Z149.836° SSE
6 mins2025-05-09 22:32:30.364Z158.95° S2025-05-09 22:34:30.364Z124.256° SE26.886°2025-05-09 22:38:30.364Z57.297° ENE
7 mins2025-05-10 00:11:30.364Z255.619° W2025-05-10 00:14:30.364Z312.727° NW29.511°2025-05-10 00:18:30.364Z13.448° NNE
|